#timestamp,LO_Frequency,Hit,StdDev 
1664809215.8,286047000.3,N
1664809235.7,286046998.4,N
1664809255.5,286047000.4,N
1664809275.4,286047002.2,N
1664809295.2,286047002.1,N
1664809315.0,286047001.3,N
1664809315.9,286047001.3,N
1664809335.8,286047005.6,Y
1664809355.6,286047005.9,P
1664809375.5,286047004.5,N
1664809395.3,286047008.6,P
1664809415.1,286047004.6,N
1664809435.9,286047006.4,N
1664809455.7,286047004.7,N
1664809475.5,286047005.9,N
1664809495.4,286047005.2,N
1664809515.2,286047003.5,N
1664809535.1,286047000.1,N
1664809536.0,286047000.1,N
1664809555.8,286047003.9,N
1664809575.6,286047000.4,N
1664809595.5,286046999.0,N
1664809615.3,286046998.7,N
1664809635.1,286046999.4,N
1664809655.9,286047000.3,N
1664809675.7,286047002.5,N
1664809695.6,286047001.6,N
1664809715.4,286047004.3,N
1664809735.2,286047001.4,N
1664809755.1,286047002.5,N
1664809756.0,286047002.5,N
1664809775.8,286047001.5,N
1664809795.6,286047002.9,N
1664809815.5,286047004.7,N
1664809835.3,286047004.8,N
1664809855.2,286047003.6,N
1664809875.9,286047005.9,N
1664809895.7,286047001.8,N
1664809915.6,286047003.9,N
1664809935.4,286047002.2,N
1664809955.2,286047000.1,N
1664809975.1,286047002.7,N
1664809976.0,286047002.7,N
1664809995.8,286047000.6,N
1664810015.7,286047001.2,N
1664810035.5,286047002.7,N
1664810055.3,286047002.0,N
1664810075.2,286047001.6,N
1664810095.0,286047003.3,N
1664810095.9,286047003.3,N
1664810115.8,286047003.6,N
1664810135.6,286047004.3,N
1664810155.4,286047001.3,N
1664810175.3,286047004.2,N
1664810195.1,286047001.3,N
1664810215.8,286047003.8,N
1664810235.7,286047004.4,Y
1664810255.5,286046995.3,P
1664810275.4,286046995.2,N
1664810295.2,286046996.2,N
1664810315.0,286046999.3,N
1664810315.9,286046999.3,N
1664810335.8,286047002.6,N
1664810355.6,286046998.8,N
1664810375.4,286046999.0,N
1664810395.3,286046998.6,N
1664810415.1,286047002.8,N
1664810435.9,286047004.0,N
1664810455.7,286047001.8,N
1664810475.5,286047000.1,N
1664810495.4,286046998.3,N
1664810515.2,286046999.0,N
1664810535.0,286047002.8,N
1664810536.0,286047002.8,N
1664810555.8,286047000.3,N
1664810575.6,286046998.5,N
1664810595.5,286046996.9,N
1664810615.3,286046996.7,N
1664810635.1,286046997.5,N
1664810655.9,286046996.2,N
1664810675.7,286046994.2,N
1664810695.6,286046993.9,N
1664810715.4,286046994.2,N
1664810735.2,286046996.2,N
1664810755.1,286046994.9,N
1664810756.0,286046994.9,N
1664810775.8,286046997.3,N
1664810795.6,286046997.9,N
1664810815.5,286046999.4,N
1664810835.3,286046999.1,N
1664810855.2,286046996.8,N
1664810875.9,286046998.5,N
1664810895.7,286046999.5,N
1664810915.6,286046998.3,N
1664810935.4,286046998.3,N
1664810955.3,286047001.0,N
1664810975.1,286047000.7,N
1664810976.0,286047000.7,N
1664810995.8,286047003.9,N
1664811015.7,286047002.0,N
1664811035.5,286047001.7,N
1664811055.3,286047001.6,N
1664811075.2,286047001.9,N
1664811095.0,286046998.1,N
1664811095.9,286046998.1,N
1664811115.8,286046999.2,N
1664811135.6,286047004.0,N
1664811155.4,286047002.9,N
1664811175.3,286047001.8,N
1664811195.1,286047001.7,N
1664811215.8,286047002.1,N
1664811235.7,286047000.1,N
1664811255.5,286047001.9,N
1664811275.4,286046998.2,N
1664811295.2,286046995.4,N
1664811315.0,286046997.2,N
1664811315.9,286046997.2,N
1664811335.8,286046997.6,N
1664811355.6,286046995.3,N
1664811375.4,286046998.3,N
1664811395.3,286046998.1,N
1664811415.1,286046998.2,N
1664811435.9,286047001.1,N
1664811455.7,286047002.4,N
1664811475.5,286046998.5,N
1664811495.4,286046996.9,N
1664811515.2,286047001.1,N
1664811535.0,286046998.4,N
1664811536.0,286046998.4,N
1664811555.8,286046999.3,N
1664811575.6,286047000.8,N
1664811595.5,286046997.0,N
1664811615.3,286046995.6,N
1664811635.1,286046995.6,N
1664811655.9,286046995.5,N
1664811675.7,286046997.3,N
1664811695.6,286046999.4,N
1664811715.4,286046998.8,N
1664811735.2,286047000.7,N
1664811755.1,286046998.4,N
1664811756.0,286046998.4,N
1664811775.8,286046995.4,N
1664811795.6,286046996.3,N
1664811815.5,286046995.4,N
1664811835.3,286046997.2,N
1664811855.2,286046999.1,N
1664811875.9,286046997.2,N
1664811895.7,286046995.5,N
1664811915.6,286046999.1,N
1664811935.4,286046999.5,N
1664811955.2,286046998.0,N
1664811975.1,286046998.7,N
1664811976.0,286046998.7,N
1664811995.8,286047000.9,N
1664812015.7,286046999.4,N
1664812035.5,286046999.9,N
1664812055.3,286047002.0,N
1664812075.2,286047001.5,N
1664812095.0,286047000.5,N
1664812095.9,286047000.5,N
1664812115.7,286046998.5,N
1664812135.6,286046996.5,N
1664812155.4,286046999.0,N
1664812175.3,286046998.2,N
1664812195.1,286046999.0,N
1664812215.8,286046999.8,N
1664812235.7,286046996.5,N
1664812255.5,286046999.6,N
1664812275.4,286046995.1,N
1664812295.2,286047000.8,N
1664812315.0,286046997.2,N
1664812315.9,286046997.2,N
1664812335.8,286046995.9,N
1664812355.6,286046997.9,N
1664812375.4,286046997.9,N
1664812395.3,286046999.4,N
1664812415.1,286046996.6,N
1664812435.9,286046995.3,N
1664812455.7,286046993.7,Y
1664812475.5,286046996.9,P
1664812495.4,286047000.6,N
1664812515.2,286047004.3,N
1664812535.0,286047001.9,N
1664812535.9,286047001.9,N
1664812555.8,286047000.1,N
1664812575.6,286047001.9,N
1664812595.5,286047003.3,N
1664812615.3,286047006.0,N
1664812635.1,286047008.7,Y
1664812655.9,286047006.0,P
1664812675.7,286047003.2,N
1664812695.6,286047004.0,N
1664812715.4,286047002.3,N
1664812735.2,286047000.3,N
1664812755.1,286047000.0,N
1664812756.0,286047000.0,N
1664812775.8,286047002.6,N
1664812795.7,286047004.1,N
